GW7219 Weather Reports


time (UTC)temp
C
wind
direction
speed
KPH
gust
KPH
rain 1hr
cm
rain 24hr
cm
rain mn
cm
humidity
%
barometer
mb
20260504150616 9 114 3.2 11.3 0.00 0.00 0.00 48 1013.9
20260504140616 7 77 3.2 8.0 0.00 0.00 0.00 55 1014.2
20260504130656 6 65 3.2 8.0 0.00 0.00 0.00 58 1013.7
20260504110617 6 70 6.4 19.3 0.00 0.00 0.00 57 1012.3
20260504081617 7 226 0.0 1.6 0.00 0.00 0.00 56 1010.1
20260504080618 7 77 3.2 4.8 0.00 0.00 0.00 53 1010.1
20260504050617 10 98 0.0 1.6 0.00 0.00 0.00 46 1010.1
20260504045637 10 113 0.0 1.6 0.00 0.00 0.00 50 1010.0
20260504044638 10 0.0 0.0 0.00 0.00 0.00 48 1010.0
20260504043638 10 0.0 0.0 0.00 0.00 0.00 46 1010.0
20260504042618 10 0.0 0.0 0.00 0.00 0.00 47 1009.9
20260504041617 10 0.0 0.0 0.00 0.00 0.00 49 1009.8
20260504040637 11 0.0 1.6 0.00 0.00 0.00 47 1009.7
20260504035617 11 0.0 0.0 0.00 0.00 0.00 44 1009.6
20260504034642 11 0.0 1.6 0.00 0.00 0.00 45 1009.4
20260504033617 12 101 0.0 1.6 0.00 0.00 0.00 44 1009.3
20260504032617 12 84 0.0 1.6 0.00 0.00 0.00 43 1009.2
20260504031617 13 0.0 1.6 0.00 0.00 0.00 43 1009.0
20260504030617 13 136 0.0 1.6 0.00 0.00 0.00 42 1009.0
20260504025617 14 0.0 0.0 0.00 0.00 0.00 39 1008.9
20260504024618 15 0.0 0.0 0.00 0.00 0.00 37 1008.9
20260504023637 16 0.0 0.0 0.00 0.00 0.00 32 1008.8
20260504022617 17 0.0 0.0 0.00 0.00 0.00 35 1008.8
20260504021618 18 0.0 0.0 0.00 0.00 0.00 30 1008.7
20260504020618 20 0.0 0.0 0.00 0.00 0.00 29 1008.6
20260504015617 20 0.0 0.0 0.00 0.00 0.00 25 1008.7
20260504014617 20 0.0 0.0 0.00 0.00 0.00 24 1008.7
20260504013617 21 259 0.0 1.6 0.00 0.00 0.00 25 1008.7
20260504012622 21 0.0 1.6 0.00 0.00 0.00 22 1008.8
20260504011617 22 258 0.0 4.8 0.00 0.00 0.00 21 1008.8
20260504010617 22 269 1.6 4.8 0.00 0.00 0.00 20 1009.0
20260504005617 22 259 1.6 3.2 0.00 0.00 0.00 22 1009.0
20260504004618 22 260 3.2 4.8 0.00 0.00 0.00 22 1009.2
20260504003617 23 263 3.2 8.0 0.00 0.00 0.00 20 1009.3
20260504002617 22 207 0.0 4.8 0.00 0.00 0.00 20 1009.3
20260504001618 23 288 3.2 4.8 0.00 0.00 0.00 23 1009.3
20260504000616 23 261 3.2 8.0 0.00 0.00 0.00 22 1009.4
20260503235617 23 258 0.0 3.2 0.00 0.00 0.00 22 1009.8
20260503234618 22 283 1.6 8.0 0.00 0.00 0.00 22 1010.0
20260503233618 22 161 0.0 4.8 0.00 0.00 0.00 25 1009.9
20260503232616 22 268 4.8 8.0 0.00 0.00 0.00 22 1010.0
20260503231616 23 266 3.2 4.8 0.00 0.00 0.00 24 1010.1
20260503230617 22 258 3.2 8.0 0.00 0.00 0.00 24 1010.2
20260503225636 22 267 4.8 8.0 0.00 0.00 0.00 23 1010.3
20260503224637 22 218 3.2 6.4 0.00 0.00 0.00 24 1010.5
20260503223617 22 258 0.0 4.8 0.00 0.00 0.00 23 1010.6
20260503222616 22 250 1.6 6.4 0.00 0.00 0.00 24 1010.7
20260503221617 22 252 0.0 3.2 0.00 0.00 0.00 25 1011.0
20260503220617 22 229 1.6 11.3 0.00 0.00 0.00 23 1011.1
20260503215616 22 292 3.2 4.8 0.00 0.00 0.00 26 1011.4
20260503214617 21 271 1.6 8.0 0.00 0.00 0.00 24 1011.5
20260503213637 22 258 4.8 12.9 0.00 0.00 0.00 23 1011.8
20260503212617 22 274 3.2 8.0 0.00 0.00 0.00 25 1011.9
20260503211616 22 263 3.2 8.0 0.00 0.00 0.00 27 1012.0
20260503210617 22 272 4.8 14.5 0.00 0.00 0.00 23 1012.3
20260503205616 21 260 4.8 6.4 0.00 0.00 0.00 26 1012.3
20260503204616 21 302 3.2 8.0 0.00 0.00 0.00 26 1012.5
20260503203616 21 269 3.2 6.4 0.00 0.00 0.00 28 1012.7
20260503202616 21 269 4.8 11.3 0.00 0.00 0.00 31 1012.8
20260503201617 21 265 3.2 9.7 0.00 0.00 0.00 28 1012.9
20260503200616 21 273 3.2 4.8 0.00 0.00 0.00 27 1013.0
20260503195616 21 276 3.2 9.7 0.00 0.00 0.00 26 1013.2
20260503194616 20 276 1.6 4.8 0.00 0.00 0.00 27 1013.4
20260503193616 20 263 1.6 6.4 0.00 0.00 0.00 31 1013.6
20260503192617 20 279 0.0 1.6 0.00 0.00 0.00 34 1013.7
20260503191616 20 267 3.2 3.2 0.00 0.00 0.00 29 1013.9
20260503190616 20 269 1.6 3.2 0.00 0.00 0.00 32 1013.9
20260503185616 19 238 1.6 6.4 0.00 0.00 0.00 31 1014.1
20260503184616 19 257 4.8 11.3 0.00 0.00 0.00 30 1014.3
20260503183621 19 348 1.6 3.2 0.00 0.00 0.00 31 1014.4
20260503182617 19 253 1.6 4.8 0.00 0.00 0.00 32 1014.5
20260503181617 18 267 3.2 4.8 0.00 0.00 0.00 37 1014.5
20260503180636 18 262 3.2 4.8 0.00 0.00 0.00 34 1014.6
20260503175616 17 266 3.2 3.2 0.00 0.00 0.00 35 1014.8
20260503174636 18 275 1.6 4.8 0.00 0.00 0.00 35 1015.0
20260503173616 17 97 0.0 3.2 0.00 0.00 0.00 37 1015.1
20260503172616 17 46 3.2 6.4 0.00 0.00 0.00 38 1015.2
20260503171616 17 0.0 3.2 0.00 0.00 0.00 39 1015.4
20260503170617 17 13 1.6 6.4 0.00 0.00 0.00 38 1015.4